カタリナ彗星

C/2005 N5 ( Catalina )

English version
Home page
Total 6,336 html files since Dec. 4, 1995
Updated on April 23, 2006

---------------------------------------------------------------------

・ プロフィール

発見日 2005年7月12日
発見光度 17.2等
発見者 Catalina Sky Survey

・ 写真集

・ 軌道要素

Epoch 2005 Aug. 18.0 TT = JDT 2453600.5
T 2005 Aug. 22.68123 TT                                 MPC
q   1.6274058            (2000.0)            P               Q
n   0.00641341     Peri.  207.76465     +0.98451735     -0.09719509
a  28.6908547      Node   156.41190     +0.10741667     +0.99215876
e   0.9432779      Incl.   21.37903     -0.13851807     +0.07857553
P 153.68

・ 星図

・ 光度変化

        m1 = 15.0 + 5 logΔ + 7.5 log r(t - 40)

---------------------------------------------------------------------

軌道要素はM.P.E.C. 2005-S07に掲載されたものです。
星図は StellaNavigator Ver.2.0 for Windows (アストロアーツ 編著 / アスキー出版局刊) で作成したものです。
光度グラフはComet for Windowsで作成したものです。

---------------------------------------------------------------------

Copyright(C) 1995-2008 Seiichi Yoshida (comet@aerith.net). All rights reserved.